Regional Weather Roundup
Issued by NWS

Home | Current Version | Previous Version | Graphics & Text | Print | Product List | Glossary Off
Versions: 1 2 3 4 5 6 7 8 9 10 11 12 13 14 15 16 17 18 19 20 21 22 23 24 25 26 27 28 29 30 31 32 33 34 35 36 37 38 39 40 41 42 43 44 45 46 47 48 49 50

000
ASUS43 KMKX 291420
RWRWI

WISCONSIN REGIONAL WEATHER ROUNDUP
NATIONAL WEATHER SERVICE MILWAUKEE/SULLIVAN WI
800 AM CST THU JAN 29 2015

NOTE: "FAIR" INDICATES FEW OR NO CLOUDS BELOW 12,000 FEET WITH NO
SIGNIFICANT WEATHER AND/OR OBSTRUCTIONS TO VISIBILITY.

WIZ001-002-006>008-014>016-023>028-291500-
NORTHWEST WISCONSIN

CITY           SKY/WX    TMP DP  RH WIND       PRES   REMARKS
SUPERIOR ARPT  CLOUDY    30  22  72 N23G29    30.06R WCI  16
ASHLAND        CLOUDY    30  23  75 NW15      30.00R WCI  19
HAYWARD        CLOUDY    29  23  78 N7        29.99R WCI  22
SIREN          CLOUDY    31  24  77 N15       30.05R WCI  20
CUMBERLAND     CLOUDY    30  25  80 N16G30    30.01R WCI  19
RICE LAKE      CLOUDY    31  26  81 NW13G22   30.02R WCI  21
CHETEK         CLOUDY    31  25  80 NW12G21   30.00R WCI  22
LADYSMITH      CLOUDY    30  26  83 NW18G29   29.97R WCI  18
EAU CLAIRE     CLOUDY    32  25  75 NW17G25   29.99R WCI  21
MENOMONIE      CLOUDY    33  27  78 NW16G28   30.01R WCI  22
NEW RICHMOND   CLOUDY    31  29  92 N13G20    30.06R WCI  21
OSCEOLA        CLOUDY    32  28  86 N15G28    30.09R WCI  22
$$

WIZ003>005-009-010-017-018-291500-
NORTH CENTRAL WISCONSIN

CITY           SKY/WX    TMP DP  RH WIND       PRES   REMARKS
MANITOWISH WTR CLOUDY    26  23  86 N15G24    29.89R WCI  14
ARBOR VITAE    CLOUDY    29  25  83 N18G31    29.88R WCI  17
WOODRUFF       CLOUDY    29  25  83 N18G31    29.88R WCI  17
RHINELANDER    CLOUDY    27  23  85 N13G23    29.86R WCI  16
EAGLE RIVER    CLOUDY    27  22  79 N21G26    29.84R WCI  13
LAND O LAKES   CLOUDY    28  24  85 NW14G24   29.85R WCI  17
PHILLIPS       CLOUDY    28  23  83 NW14G24   29.91R WCI  17
TOMAHAWK       CLOUDY    28  24  82 NW14G25   29.88R WCI  17
MEDFORD        CLOUDY    28  25  88 NW16G23   29.90R WCI  17
MERRILL        CLOUDY    29  26  86 N17G25    29.87R WCI  17
$$

WIZ029-030-035-036-043>047-291500-
CENTRAL WISCONSIN

CITY           SKY/WX    TMP DP  RH WIND       PRES   REMARKS
WAUSAU         CLOUDY    29  25  85 NW14G21   29.87R WCI  18
MOSINEE        CLOUDY    28  28 100 NW13      29.89R FOG     WCI  18
MARSHFIELD     CLOUDY    30  26  85 NW17      29.92R FOG     WCI  18
STEVENS POINT  CLOUDY    27  25  90 NW12G17   29.89R FOG     WCI  17
WAUPACA        CLOUDY    32  26  79 NW10G17   29.87R HAZE    WCI  23
WAUTOMA        CLOUDY    30  27  89 NW14      29.89R WCI  19
WISC RAPIDS    CLOUDY    30  25  81 NW13      29.92R HAZE    WCI  20
CAMP DOUGLAS   CLOUDY    30  30 100 NW12G22   29.93R WCI  21
$$

WIZ011>013-019>022-031-037>040-048>050-291500-
NORTHEAST WISCONSIN

CITY           SKY/WX    TMP DP  RH WIND       PRES   REMARKS
ANTIGO         CLOUDY    27  25  94 NW16G22   29.84R FOG     WCI  14
SHAWANO        CLOUDY    32  26  78 NW7       29.86R WCI  25
OCONTO         CLOUDY    30  26  84 MISG      29.83R
STURGEON BAY   CLOUDY    28  25  86 NW9       29.83R WCI  20
GREEN BAY      CLOUDY    30  25  81 NW15      29.83R HAZE    WCI  19
MANITOWOC      MIX PCPN  30  27  86 NW13      29.82R FOG     WCI  20
APPLETON       CLOUDY    28  25  86 NW12G21   29.84R FOG     WCI  18
CLINTONVILLE   CLOUDY    30  27  86 NW9       29.86R WCI  22
OSHKOSH        CLOUDY    30  24  78 NW16G24   29.84R HAZE    WCI  19
$$

WIZ032>034-041-042-053>061-291500-
SOUTHWEST WISCONSIN

CITY           SKY/WX    TMP DP  RH WIND       PRES   REMARKS
LA CROSSE      CLOUDY    34  29  82 NW14      29.98R WCI  25
SPARTA         CLOUDY    32  30  92 NW10      29.97R FOG     WCI  24
VIROQUA        CLOUDY    31  31 100 NW17      29.93R WCI  19
BOSCOBEL       CLOUDY    34  27  75 NW7       29.96R WCI  28
PRAIRIE DU CHI CLOUDY    34  28  80 NW10G18   29.98R WCI  26
PLATTEVILLE    CLOUDY    32  28  86 NW16      29.93R WCI  21
$$

WIZ056-057-062-063-064-067-068-291500-
SOUTH CENTRAL WISCONSIN

CITY           SKY/WX    TMP DP  RH WIND       PRES   REMARKS
REEDSBURG      CLOUDY    30  27  88 NW10      29.91R WCI  21
BARABOO/DELLS  CLOUDY    30  26  86 NW12      29.90R FOG     WCI  20
LONE ROCK      CLOUDY    32  26  78 NW12G23   29.94R WCI  23
MINERAL POINT  CLOUDY    32  28  86 NW17G23   29.91R WCI  21
MADISON        CLOUDY    31  25  78 NW13G20   29.88R WCI  21
MIDDLETON      CLOUDY    32  27  81 NW18G25   29.88R WCI  20
WATERTOWN      LGT SNOW  30  29  95 NW10G21   29.85R WCI  21
MONROE         CLOUDY    32  28  86 NW9G22    29.87R WCI  24
JANESVILLE     LGT SNOW  34  28  80 NW13G21   29.86R WCI  25
$$

WIZ051-052-058>065-066-070>072-291500-
SOUTHEAST WISCONSIN

CITY           SKY/WX    TMP DP  RH WIND       PRES   REMARKS
MILWAUKEE      CLOUDY    33  25  72 NW16G24   29.80R HAZE    WCI  23
WAUKESHA       CLOUDY    28  27  93 NW16      29.82R WCI  17
MILWAUKEE/TIMM LGT SNOW  30  27  86 NW13G20   29.81R WCI  20
RACINE         CLOUDY    33  25  72 NW15G23   29.80R WCI  23
BURLINGTON     CLOUDY    30  26  84 NW16G22   29.82R FOG     WCI  19
KENOSHA        CLOUDY    33  27  78 NW15G25   29.81R WCI  23
FOND DU LAC    CLOUDY    30  24  78 NW18      29.85R WCI  18
SHEBOYGAN      LGT SNOW  30  25  81 NW14      29.82R WCI  19
WEST BEND      LGT SNOW  30  27  86 NW13G21   29.82R WCI  20
JUNEAU         LGT SNOW  29  26  89 NW9G18    29.85R WCI  21
$$

LSZ147-162-291500-
LAKE SUPERIOR

STATION/POSITION TIME  TEMP    WIND        PRES    WAVE
                       AIR SEA DIR/SP/G            HT/PER
                 (UTC) (F)     (DEG/KT/KT) (MB)    (FT/S)
DEVILS ISLAND    1400   29     340/ 23/ 25 1016.9R
PORT WING        1311   31     320/ 21/ 25 1016.3R
SAXON HARBOR     1300   32     330/ 18/ 20 1014.2
$$

LMZ867-665-643>646-291500-
LAKE MICHIGAN

STATION/POSITION TIME  TEMP    WIND        PRES    WAVE
                       AIR SEA DIR/SP/G            HT/PER
                 (UTC) (F)     (DEG/KT/KT) (MB)    (FT/S)
NORTHPORT PIER   1400   29     310/ 12/ 15 1009.1R
SISTER BAY       1328   29     340/  9/ 10   N/A
KEWAUNEE LAKESHO 1400   30     320/  9/ 14 1008.7R
SHEBOYGAN LAKESH 1400   31     320/ 15/ 18 1010.5R
PORT WASHINGTON  1340   32     320/ 13/ 20 1010.2R
MILWAUKEE LAKESH 1400   33     330/ 13/ 20   N/A
KENOSHA   LAKESH 1400   33     330/ 15/ 19 1009.1R
$$

TC  - TEMPERATURE IN CELSIUS
VSB - VISIBILITY IN STATUTE MILES
WCI - WIND CHILL INDEX
HX  - HEAT INDEX



USA.gov is the U.S. government's official web portal to all federal, state and local government web resources and services.